Location: Unspecified
(0.0000°N, 0.0000°E)
Time: 09:18:29
(UTC+00:00)

ARIANE 2 DEB - Pass Details

Date: 08 March 2026
Orbit: 561 x 35705 km, 7.7° (Epoch: 19 April)

Event Time Altitude Azimuth Distance (km) Brightness Sun altitude
Rises 23:46:42 0° 260° (W) 7,709 ? -82.2°
Reaches altitude 10° 23:49:51 10° 259° (W) 7,639 ? -82.8°
Enters shadow 00:08:54 54° 254° (WSW) 9,827 ? -85.0°
Exits shadow 01:11:07 85° 239° (WSW) 21,041 ? -74.2°
Maximum altitude 01:41:21 86° 250° (WSW) 25,196 ? -66.9°
Drops below altitude 10° 09:51:09 10° 82° (E) 4,371 ? 54.8°
Sets 09:52:59 0° 85° (E) 4,808 ? 55.3°
